Voltar ao catálogo

DELTA 1 DEB

AtivoLEO
NORAD 7180·DEBRIS·🇺🇸 United States

Lançado Nov 6, 1973 de Vandenberg Space Force Base

Loading…

Próximas Passagens (próximas 24 horas)

TLE

AtualizadoSource: Space-Track

Época: Sep 13, 2026, 21:22 UTC

1 07180U 73086ER  26256.89075171  .00000891  00000-0  39877-2 0  9993
2 07180 102.2393   9.3640 0146046 329.1055 150.3970 12.79512724452035

Acompanhe DELTA 1 DEB em tempo real com AllMySat

Download on the App Store